Milan, NH

6:16 AM EST on December 05, 2016 (GMT -0500)
Berlin Municipal

Weather History for KBML - November, 2014

Change the Weather History Date:

Monday, November 17, 2014

  Actual Average Record
Temperature  
Mean Temperature 31 °F -  
Max Temperature 34 °F 38 °F 64 °F (2006)
Min Temperature 28 °F 21 °F 8 °F (2003)
Degree Days  
Heating Degree Days 34    
Moisture  
Dew Point 29 °F    
Average Humidity 87    
Maximum Humidity 96    
Minimum Humidity 67    
Precipitation  
Precipitation 0.38 in - - ()
Sea Level Pressure  
Sea Level Pressure 29.74 in    
Wind  
Wind Speed 2 mph (NNW)    
Max Wind Speed 8 mph    
Max Gust Speed -    
Visibility 6 miles    
Events Fog , Rain , Snow    
Averages and records for this station are not official NWS values.
T = Trace of Precipitation, MM = Missing Value Source: NWS Daily Summary

Daily Weather History Graph

Daily Weather History Graph

Search for Another Location

Airport or City:

Trip Planner

Search our weather history database for the weather conditions in past years. The results will help you decide how hot, cold, wet, or windy it might be!

Date:

Astronomy

Nov. 17, 2014 Rise Set
Actual Time 6:43 AM EST 4:15 PM EST
Civil Twilight 6:12 AM EST 4:46 PM EST
Nautical Twilight 5:36 AM EST 5:22 PM EST
Astronomical Twilight 5:02 AM EST 5:56 PM EST
Moon 1:30 AM EST (11/17) 1:48 PM EST (11/17)
Length of Visible Light 10h 34m
Length of Day
9h 31m
Waning Crescent, 23% of the Moon is Illuminated
Nov 17
Waning Crescent
Nov 22
New
Nov 29
First Quarter
Dec 6
Full
Dec 14
Last Quarter

Hourly Weather History & Observations

Time (EST) Temp. Windchill Dew Point Humidity Pressure Visibility Wind Dir Wind Speed Gust Speed Precip Events Conditions
12:52 AM 30.9 °F 27.5 °F 21.0 °F 67% 30.06 in 10.0 mi NNW 3.5 mph - N/A   Overcast
1:52 AM 30.9 °F - 21.9 °F 69% 30.05 in 10.0 mi Calm Calm - N/A   Overcast
2:52 AM 30.0 °F - 23.0 °F 75% 30.04 in 10.0 mi Calm Calm - N/A   Overcast
3:52 AM 30.0 °F - 23.0 °F 75% 30.06 in 10.0 mi Calm Calm - N/A   Overcast
4:52 AM 30.9 °F - 24.1 °F 76% 30.06 in 8.0 mi Calm Calm - 0.00 in Snow Light Snow
5:10 AM 30.0 °F - 25.0 °F 82% 30.00 in 2.0 mi Calm Calm - 0.00 in Snow Light Snow
5:22 AM 30.0 °F - 25.0 °F 82% 30.00 in 1.8 mi Calm Calm - 0.00 in Snow Light Snow
5:52 AM 28.9 °F - 26.1 °F 89% 30.02 in 1.8 mi Calm Calm - 0.01 in Snow Light Snow
6:41 AM 28.9 °F - 27.0 °F 92% 29.94 in 1.0 mi Calm Calm - 0.02 in Snow Light Snow
6:52 AM 28.9 °F - 26.1 °F 89% 29.98 in 1.2 mi Calm Calm - 0.02 in Snow Light Snow
7:08 AM 28.9 °F - 26.1 °F 89% 29.93 in 0.8 mi Calm Calm - 0.01 in Snow Light Snow
7:20 AM 28.9 °F - 26.1 °F 89% 29.94 in 0.5 mi Calm Calm - 0.02 in Fog , Snow Snow
7:52 AM 30.0 °F - 27.0 °F 88% 29.98 in 0.5 mi Calm Calm - 0.05 in Fog , Snow Snow
8:24 AM 30.0 °F - 27.0 °F 88% 29.93 in 0.5 mi Calm Calm - 0.03 in Fog , Snow Snow
8:36 AM 30.0 °F - 27.0 °F 88% 29.93 in 0.5 mi Calm Calm - 0.04 in Fog , Snow Snow
8:52 AM 30.0 °F 26.5 °F 27.0 °F 88% 29.96 in 0.5 mi North 3.5 mph - 0.05 in Fog , Snow Snow
9:19 AM 30.0 °F 26.5 °F 27.0 °F 88% 29.91 in 1.5 mi NNW 3.5 mph - 0.02 in Snow Light Snow
9:40 AM 30.0 °F 26.5 °F 28.0 °F 92% 29.89 in 1.8 mi NNW 3.5 mph - 0.03 in Snow Light Snow
9:52 AM 30.9 °F - 28.0 °F 89% 29.92 in 2.0 mi Calm Calm - 0.03 in Snow Light Snow
10:02 AM 30.9 °F - 28.0 °F 89% 29.87 in 3.0 mi Calm Calm - 0.00 in Snow Light Snow
10:41 AM 30.9 °F 26.2 °F 28.0 °F 89% 29.83 in 8.0 mi NNW 4.6 mph - 0.01 in   Overcast
10:52 AM 32.0 °F 27.5 °F 28.0 °F 85% 29.86 in 9.0 mi North 4.6 mph - 0.01 in   Overcast
11:17 AM 32.0 °F 28.7 °F 28.0 °F 85% 29.78 in 5.0 mi North 3.5 mph - 0.00 in Rain Light Freezing Rain
11:31 AM 32.0 °F 28.7 °F 28.0 °F 85% 29.77 in 9.0 mi NNW 3.5 mph - 0.00 in   Overcast
11:52 AM 32.0 °F 27.5 °F 28.0 °F 85% 29.80 in 9.0 mi NNW 4.6 mph - 0.00 in   Overcast
12:13 PM 32.0 °F 28.7 °F 28.9 °F 88% 29.74 in 5.0 mi North 3.5 mph - 0.00 in Rain Light Freezing Rain
12:37 PM 32.0 °F - 30.0 °F 92% 29.73 in 2.0 mi Calm Calm - 0.02 in Rain Light Freezing Rain
12:52 PM 32.0 °F - 28.9 °F 88% 29.76 in 3.0 mi Calm Calm - 0.03 in Rain Light Freezing Rain
1:20 PM 33.1 °F - 30.0 °F 89% 29.71 in 5.0 mi Calm Calm - 0.02 in Rain Light Rain
1:52 PM 33.1 °F - 30.0 °F 89% 29.71 in 7.0 mi Calm Calm - 0.04 in Rain Light Rain
2:03 PM 33.1 °F 30.0 °F 28.9 °F 85% 29.67 in 7.0 mi NNW 3.5 mph - 0.01 in Rain Light Rain
2:11 PM 33.1 °F - 30.0 °F 89% 29.67 in 6.0 mi Calm Calm - 0.01 in Rain Light Rain
2:52 PM 33.1 °F 30.0 °F 30.0 °F 89% 29.66 in 6.0 mi NW 3.5 mph - 0.03 in Rain Light Rain
3:05 PM 33.1 °F - 30.0 °F 89% 29.61 in 5.0 mi Calm Calm - 0.00 in Rain Light Rain
3:35 PM 33.1 °F 30.0 °F 30.9 °F 92% 29.59 in 5.0 mi Variable 3.5 mph - 0.01 in Rain Light Rain
3:52 PM 34.0 °F - 32.0 °F 92% 29.61 in 9.0 mi Calm Calm - 0.01 in Rain Light Rain
4:52 PM 34.0 °F 27.2 °F 30.9 °F 89% 29.57 in 6.0 mi North 8.1 mph - 0.03 in Rain Light Rain
5:01 PM 34.0 °F 28.0 °F 30.9 °F 89% 29.53 in 7.0 mi North 6.9 mph - 0.01 in Rain Light Rain
5:52 PM 34.0 °F 28.0 °F 30.9 °F 89% 29.52 in 9.0 mi NNW 6.9 mph - 0.02 in Rain Light Rain
6:52 PM 34.0 °F 29.8 °F 32.0 °F 92% 29.50 in 5.0 mi North 4.6 mph - 0.04 in Rain Rain
7:22 PM 34.0 °F - 32.0 °F 92% 29.44 in 10.0 mi Calm Calm - 0.01 in Rain Light Rain
7:52 PM 34.0 °F 31.0 °F 30.9 °F 89% 29.47 in 10.0 mi NNW 3.5 mph - 0.01 in   Overcast
8:18 PM 34.0 °F 31.0 °F 32.0 °F 92% 29.42 in 10.0 mi North 3.5 mph - N/A   Overcast
8:39 PM 34.0 °F 31.0 °F 32.0 °F 92% 29.41 in 10.0 mi North 3.5 mph - N/A   Overcast
8:52 PM 34.0 °F - 32.0 °F 92% 29.44 in 9.0 mi Calm Calm - N/A   Overcast
9:52 PM 33.1 °F - 30.9 °F 92% 29.41 in 6.0 mi Calm Calm - N/A   Overcast
10:17 PM 34.0 °F - 32.0 °F 92% 29.37 in 4.0 mi Calm Calm - N/A   Overcast
10:38 PM 34.0 °F - 32.0 °F 92% 29.37 in 5.0 mi Calm Calm - N/A   Overcast
10:52 PM 33.1 °F 30.0 °F 32.0 °F 96% 29.41 in 8.0 mi SE 3.5 mph - N/A   Overcast
11:09 PM 34.0 °F - 30.9 °F 89% 29.37 in 9.0 mi Calm Calm - N/A   Overcast
11:52 PM 34.0 °F 31.0 °F 32.0 °F 92% 29.42 in 6.0 mi NW 3.5 mph - N/A   Overcast